MST,Max TemperatureF,Mean TemperatureF,Min TemperatureF,Max Dew PointF,MeanDew PointF,Min DewpointF,Max Humidity, Mean Humidity, Min Humidity, Max Sea Level PressureIn, Mean Sea Level PressureIn, Min Sea Level PressureIn, Max VisibilityMiles, Mean VisibilityMiles, Min VisibilityMiles, Max Wind SpeedMPH, Mean Wind SpeedMPH, Max Gust SpeedMPH,PrecipitationIn, CloudCover, Events, WindDirDegrees
2012-11-1,60,40,19,23,16,3,86,55,12,30.30,30.20,30.10,10,10,10,15,1,23,0.00,0,,237
2012-11-2,53,37,21,21,18,14,80,53,21,30.25,30.17,30.13,,,,10,0,,0.00,1,,355
2012-11-3,55,35,15,21,16,12,86,55,18,30.34,30.28,30.22,,,,15,1,20,0.00,0,,328
2012-11-4,53,35,17,23,18,10,80,56,24,30.44,30.39,30.33,,,,10,1,17,0.00,3,,307
2012-11-5,55,42,26,27,24,19,75,55,26,30.47,30.41,30.34,,,,12,1,,0.00,4,,320
2012-11-6,59,39,19,27,19,14,86,56,17,30.50,30.41,30.34,,,,6,0,,0.00,0,,223
2012-11-7,64,39,14,19,11,0,86,46,8,30.39,30.25,30.12,,,,15,2,21,0.00,0,,226
2012-11-8,62,40,17,16,8,-8,79,40,6,30.16,30.02,29.89,,,,20,2,28,0.00,0,,187
2012-11-9,59,44,30,32,20,10,81,40,17,29.89,29.76,29.65,,,,24,9,36,0.00,3,Rain,196
2012-11-10,37,28,19,32,21,10,93,73,44,29.78,29.64,29.54,,,,28,7,38,0.14,6,Rain-Snow,246
2012-11-11,23,16,10,12,5,-4,79,59,33,30.32,30.03,29.79,,,,17,5,29,0.00,5,Snow,298
2012-11-12,32,16,1,10,4,-4,79,64,34,30.48,30.40,30.33,,,,8,1,,0.00,1,,117
2012-11-13,35,22,8,18,11,1,86,69,41,30.40,30.36,30.31,,,,6,1,,0.00,4,,113
2012-11-14,44,26,8,21,12,1,86,63,25,30.41,30.31,30.22,,,,9,1,,0.00,2,,244
2012-11-15,48,34,19,21,17,14,86,63,25,30.39,30.34,30.29,,,,13,1,,0.00,2,,224
2012-11-16,50,31,12,23,15,9,86,61,27,30.39,30.29,30.18,,,,7,1,,0.00,4,,129
2012-11-17,51,40,28,30,27,23,87,65,33,30.26,30.20,30.14,,,,12,4,17,0.00,4,Rain,180
2012-11-18,44,34,23,32,27,19,87,74,53,30.24,30.15,30.11,,,,16,3,23,0.00,7,Rain-Snow,200
2012-11-19,50,36,23,30,24,18,87,68,32,30.41,30.33,30.24,,,,16,4,22,0.00,2,,227
2012-11-20,53,36,19,19,16,10,86,57,18,30.41,30.31,30.27,,,,8,1,,0.00,0,,169
2012-11-21,55,34,14,19,10,0,86,48,10,30.30,30.18,30.08,,,,13,2,21,0.00,0,,176
2012-11-22,50,37,23,23,17,10,74,44,29,30.48,30.27,30.11,,,,18,6,24,0.00,0,,317
2012-11-23,50,31,12,18,13,9,86,59,20,30.59,30.49,30.43,,,,8,2,,0.00,0,,96
2012-11-24,51,31,14,18,12,9,86,68,19,30.45,30.38,30.20,,,,15,0,20,0.00,0,,144
2012-11-25,,,,,,,,,,,,,,,,,,,,,,
2012-11-26,46,30,12,14,7,3,73,41,17,30.33,30.25,30.20,,,,10,4,,0.00,0,,263
2012-11-27,50,26,3,9,3,-8,79,50,9,30.41,30.34,30.26,,,,21,2,26,0.00,0,,265
2012-11-28,44,24,5,10,6,0,79,58,19,30.44,30.33,30.22,,,,5,1,,0.00,0,,90
2012-11-29,53,32,12,19,13,7,80,56,22,30.25,30.20,30.13,,,,17,3,23,0.00,2,,261
2012-11-30,53,34,14,23,16,10,86,53,26,30.24,30.12,30.02,,,,20,2,26,0.00,1,,117